[[{"header":{"parameterUnit":"m.s-1","parameterCategory":1,"la1":30.2992,"la2":30.254,"lo1":-89.0895,"lo2":-89.0443,"dy":0.0025,"dx":0.0025,"nx":19,"ny":19,"refTime":"2026-05-04T21:00:00:Z","depth":0,"parameterNumber":2,"parameterNumberName":"U-component_of_WINDS"},"data":[0,0,0,-0.9669,-0.9669,-0.9698,-0.9698,-0.9734,-0.9734,0,0,0,0,0,0,0,0,0,0,0,-0.966,-0.966,-0.9669,-0.967,-0.9698,-0.9698,-0.9734,-0.9734,0,0,0,0,0,0,0,0,0,0,0,-0.966,-0.966,-0.9661,-0.967,-0.9698,-0.9698,-0.9734,-0.9712,0,0,0,0,0,0,0,0,0,0,-0.9685,-0.9676,-0.966,-0.9661,-0.967,-0.9698,-0.9698,-0.9711,-0.9714,-0.9721,0,-0.9727,0,-0.9731,-0.9736,-0.9737,0,0,0,-0.967,-0.9675,-0.9683,-0.9661,-0.967,-0.9698,-0.9685,-0.9713,-0.9715,-0.9724,-0.9727,-0.9729,-0.9732,-0.9737,-0.9737,-0.9778,-0.9778,0,0,-0.9668,-0.9665,-0.9681,-0.9684,-0.968,-0.9684,-0.9686,-0.9714,-0.9718,-0.9728,-0.973,-0.9732,-0.9737,-0.9737,-0.9778,-0.9778,0,0,0,-0.9664,-0.9664,-0.9671,-0.9683,-0.9688,-0.9685,-0.9687,-0.9716,-0.9719,-0.973,-0.9733,-0.9737,-0.9737,-0.9778,-0.9778,-0.9785,0,0,0,-0.9663,-0.9661,-0.967,-0.9669,-0.9687,-0.9702,-0.9688,-0.9717,-0.9721,-0.9732,-0.9737,-0.9738,-0.9778,-0.9778,-0.9784,-0.9788,0,0,0,-0.9658,-0.9661,-0.9665,-0.9668,-0.968,-0.9702,-0.9706,-0.9718,-0.9722,-0.9737,-0.9738,-0.9777,-0.9778,-0.9783,-0.9787,-0.9799,0,0,0,-0.9653,-0.9669,-0.9665,-0.9684,-0.968,-0.9706,-0.9706,-0.9725,-0.9738,-0.9737,-0.9778,-0.9778,-0.9783,-0.9787,-0.9798,-0.9808,-0.9812,0,0,-0.9671,-0.9671,-0.9683,-0.968,-0.9705,-0.9702,-0.9729,-0.9743,-0.9747,-0.9768,-0.9769,-0.9784,-0.9787,-0.9799,-0.9834,-0.9836,0,0,0,-0.9687,-0.9696,-0.9703,-0.9716,-0.9728,-0.9739,-0.9751,-0.9756,-0.9774,-0.9757,-0.9791,-0.9793,-0.98,-0.9805,-0.9808,-0.9814,-0.978,-0.978,-0.978,-0.9708,-0.9714,-0.9734,-0.9743,-0.9756,-0.9768,-0.9779,-0.9789,-0.9789,-0.9798,-0.9804,-0.9824,-0.983,-0.9832,-0.9839,-0.9809,-0.9809,-0.9809,-0.9809,-0.9737,-0.975,-0.9752,-0.9773,-0.9779,-0.9796,-0.9809,-0.9809,-0.9827,-0.982,-0.9826,-0.9818,-0.9835,-0.9841,-0.981,-0.981,-0.981,-0.981,-0.9809,-0.9751,-0.9759,-0.9766,-0.9786,-0.9801,-0.981,-0.9827,-0.9832,-0.9836,-0.9842,-0.985,-0.985,-0.9851,-0.9846,-0.9846,-0.9846,-0.9846,-0.9846,-0.9846,-0.9763,-0.9772,-0.9786,-0.9801,-0.9811,-0.9825,-0.9838,-0.9848,-0.986,-0.9862,-0.9862,-0.9863,-0.9835,-0.9829,-0.9847,-0.9847,-0.9847,-0.9847,-0.9847,-0.979,-0.9786,-0.9807,-0.9817,-0.9837,-0.9852,-0.9858,-0.9878,-0.9887,-0.9895,-0.9895,-0.9874,-0.9874,-0.9872,-0.9867,-0.9894,-0.9894,-0.9894,-0.9894,-0.9803,-0.9804,-0.9828,-0.9844,-0.986,-0.9868,-0.9893,-0.9905,-0.9916,-0.9922,-0.9919,-0.9912,-0.9909,-0.9911,-0.9908,-0.9903,-0.9938,-0.9938,-0.9938,-0.9821,-0.9823,-0.9844,-0.9855,-0.9871,-0.9885,-0.991,-0.9928,-0.994,-0.994,-0.9927,-0.9925,-0.9914,-0.991,-0.991,-0.9905,-0.9896,0,0]},{"header":{"parameterUnit":"m.s-1","parameterCategory":1,"la1":30.2992,"la2":30.254,"lo1":-89.0895,"lo2":-89.0443,"dy":0.0025,"dx":0.0025,"nx":19,"ny":19,"refTime":"2026-05-04T21:00:00:Z","depth":0,"parameterNumber":3,"parameterNumberName":"V-component_of_WINDS"},"data":[0,0,0,5.7874,5.7875,5.794,5.7941,5.8041,5.8042,0,0,0,0,0,0,0,0,0,0,0,5.7867,5.7869,5.7874,5.7876,5.794,5.7941,5.8041,5.8042,0,0,0,0,0,0,0,0,0,0,0,5.7867,5.7868,5.787,5.7876,5.794,5.7941,5.8041,5.7985,0,0,0,0,0,0,0,0,0,0,5.7919,5.7926,5.7868,5.787,5.7876,5.794,5.7941,5.7982,5.7988,5.802,0,5.8053,0,5.805,5.805,5.8051,0,0,0,5.7865,5.7921,5.7927,5.787,5.7877,5.794,5.7908,5.7985,5.7993,5.8029,5.8055,5.8058,5.8051,5.8051,5.8052,5.8269,5.8271,0,0,5.7862,5.7886,5.7922,5.7932,5.7926,5.7906,5.791,5.7989,5.8019,5.8055,5.806,5.8053,5.8052,5.8053,5.8268,5.827,0,0,0,5.7858,5.7884,5.7887,5.7929,5.7939,5.7908,5.7913,5.8015,5.8014,5.8061,5.8054,5.8053,5.8054,5.8266,5.8269,5.8363,0,0,0,5.7856,5.7882,5.7886,5.7902,5.7938,5.7979,5.7938,5.8009,5.8017,5.8054,5.8053,5.8055,5.8265,5.8268,5.8357,5.8404,0,0,0,5.7859,5.7882,5.7896,5.7903,5.7932,5.7977,5.798,5.801,5.8014,5.8051,5.8056,5.8264,5.8267,5.8352,5.8395,5.8465,0,0,0,5.7869,5.7981,5.7898,5.8021,5.7931,5.8037,5.7979,5.8056,5.81,5.8053,5.8265,5.8268,5.835,5.8389,5.8459,5.8527,5.8558,0,0,5.8024,5.8001,5.8071,5.7998,5.8124,5.8025,5.8163,5.8181,5.8162,5.8234,5.8239,5.8359,5.8394,5.8464,5.873,5.8755,0,0,0,5.8128,5.8178,5.8207,5.8249,5.8266,5.8281,5.8275,5.828,5.834,5.8205,5.8405,5.8425,5.8465,5.8495,5.8517,5.8548,5.8285,5.8284,5.8284,5.8381,5.8351,5.8463,5.8441,5.8483,5.8473,5.8503,5.8509,5.8468,5.8515,5.8535,5.8701,5.8738,5.8754,5.8787,5.8571,5.8572,5.8572,5.8572,5.8603,5.8667,5.8608,5.8695,5.8662,5.8735,5.8729,5.8697,5.8758,5.8684,5.8718,5.8637,5.8782,5.8809,5.8579,5.8578,5.8577,5.8577,5.8576,5.8762,5.8787,5.8793,5.8849,5.8895,5.8868,5.8928,5.8896,5.8867,5.89,5.8916,5.8914,5.8905,5.8911,5.8911,5.8912,5.8912,5.8913,5.8913,5.8924,5.8927,5.8982,5.9007,5.9028,5.9052,5.9042,5.9062,5.9075,5.9046,5.9046,5.8997,5.8804,5.8753,5.8922,5.892,5.8919,5.8918,5.8918,5.9155,5.9097,5.9182,5.9203,5.9227,5.9273,5.9232,5.9273,5.9285,5.9315,5.9259,5.9122,5.9096,5.9079,5.9036,5.9268,5.9268,5.9268,5.9268,5.9286,5.927,5.9348,5.9383,5.9414,5.9385,5.9478,5.9471,5.9455,5.9459,5.9422,5.9364,5.9349,5.9331,5.9309,5.9268,5.9554,5.9554,5.9554,5.9424,5.9409,5.9496,5.9479,5.9494,5.9508,5.9594,5.9634,5.9604,5.9565,5.9461,5.9449,5.9356,5.9328,5.9284,5.925,5.9176,0,0]}]]